Tracking 19247 objects as of 22-Sep-2018
HD Live streaming from Space Station
objects crossing your sky now

FENGYUN 1C DEB

Track FENGYUN 1C DEB now!
10-day predictions


NORAD ID: 31547
Int'l Code: 1999-025BYN
Perigee: 819.5 km
Apogee: 914.5 km
Inclination: 99.0 °
Period: 102.1 minutes
Semi major axis: 7237 km
RCS: 0.0024 m2 (small)
Launch date: May 10, 1999
Source: People's Republic of China (PRC)
Launch site: Taiyaun Space Center, China (TSC)

Note: This is SATELLITE DEBRIS
aabbcc
Your satellite tracking list
Your tracking list is empty




NASA's NSSDC Master Catalog

Two Line Element Set (TLE):
1 31547U 99025BYN 18263.09404812  .00000546  00000-0  32905-3 0  9990
2 31547  99.0364 221.9064 0065582 134.8384 225.8141 14.09857827586018
Source of the keplerian elements: AFSPC